sat.trackr.live / text

‹ back to catalog

STARLINK-37071

NORAD 68190 · 2026-050Z

PAYLOAD ACTIVE UNKNOWN

§ Identity

Operator
Country
US
Launch date
2026-03-14
Launch site
AFETR
Launch vehicle
Mass (kg)
RCS (m²)

Purposes: comms

External: N2YO · Heavens-Above · Gunter

§ Orbital elements

Epoch: 2026-05-25T02:00:31.427712Z

Period
93.85 min
Inclination
53.1604°
Eccentricity
0.0001111
Mean motion
15.34406415 rev/d
Perigee alt
461.9 km
Apogee alt
463.4 km
Semi-major
6,840.8 km
B*
8.5675e-4
RAAN
271.5984°
Arg perigee
80.0682°
Mean anomaly
280.0446°
Rev number
1,238

§ Raw data

STARLINK-370711 68190U 26050Z   26145.08369708  .00028687  00000+0  85675-3 0  99902 68190  53.1604 271.5984 0001111  80.0682 280.0446 15.34406415 12380

JSON: /api/v1/satellites/68190 · /tle

For live sub-satellite position, see the globe view (requires WebGL).

§ Visibility from observer

Set your observer location to see the next 7 days of passes ≥ 10°. The values pass through the URL so the page stays shareable.

No JS? Fill the form by hand. The geolocation button needs JavaScript.